DELTA 1 DEB, 21500

Orbit data source: Space-Track

DELTA 1 DEB, 21500 is space debris in SSO originally from a launch on Thu, 12 Jun 1975 UTC launched from the Air Force Western Test Range (AFWTR). Debris objects in space refer to the collection of defunct objects orbiting the Earth. Examples of debris include non-operational satellites, rocket bodies, and fragments generated from explosions, collisions, or faulty payload assembly.

Loading next visibility...
Identifier
21500, 1975-052FV
Orbit
SSO
Country
Flag of USUS
Related business
Manufacturer
Unknown
Mission
Spacecraft
Bus & Motor
Unknown
Mass
Unknown
Launch date (UTC)
1975-06-12 (50 years ago)
Launch vehicle
Unknown
Launch site
Air Force Western Test Range (AFWTR)
Object type
Payload
Rocket body
Debris
Shape & HBR
Unknown shape, 0.1 m
Radar Cross Section
Small (<0.1 m²)

Expand to show TLE details & history
Last TLE update: 12 hours ago

TLE from 12 hours ago
0 DELTA 1 DEB
1 21500U 75052FV  25291.98373951  .00004981  00000-0  13999-2 0  9996
2 21500 100.0321  76.1595 0162972  46.6379  79.5873 14.38946792778286
Epoch: 2025-10-18T23:36Z
TLE epoch observation values (Epoch: 2025-10-18T23:36:35.093Z)
Latitude
50.92927°
Longitude
-113.1758°
Altitude
750.891 km
Speed
7.494 km/s
True Right ascension
17h 54m 42s
True Declination
50° 45' 39"
Sunlit
Object was in daylight at epoch
Visualization orbit readout
Latitude
Unknown
Longitude
Unknown
Altitude
Unknown
Speed
Unknown
Apparent Right ascension
Unknown
Apparent Declination
Unknown
Sunlit
N/A
Visualization observer readout
Local Sidereal Time
06:13:55
Azimuth
Unknown
Elevation
Unknown
Doppler factor
Unknown
Orbital elements
Apogee altitude
875.499 km
Perigee altitude
642.863 km
Semi-major axis
7,137.318 km
Eccentricity
0.0163
Inclination
100.0321°
RAAN
76.1595°
Arg. of periapsis
46.6379°
True anomaly
81.43053°
Mean anomaly
79.5873°
Eccentric anomaly
80.50828°
Mean motion
3.59949 °/min
Orbital period
100.01 mins
BSTAR
0.0013999
Loading maneuver chart data...
Computing Atmospheric mass density...
Loading historical data...
Loading historical data...
Loading historical data...
Loading historical data...
Loading historical data...
Loading historical data...
Loading historical data...

Documentation

Showing up to 5 results
|